Dewpoint
-11 -10 -12 -11 -11 -9 -11 -10 -12 -16 -17 -17 -16 -16 -15 -15 -10 -13 -12 -12 -10 -10 -11 -12 -11 -12 -12 -12 -13 -12 -12 -12 -11 -12 -13 -12 -12 -13 -12 -12 -11 -10
-12 -8 -3 -3 1 -2 -7 -12 -16 -17 -16 -16 -16 -15 -15 -13 -14 -13 -12 -11 -11 -11 -12 -12 -12 -11 -12 -12 -12 -11 -11 -11 -12 -10 -12 -12 -12 -12 -12 -13 -12 -12
-13 -14 -14 -14 -14 -14 -15 -15 -15 -16 -16 -16 -15 -14 -14 -12 -13 -12 -11 -12 -10 -10 -12 -12 -13 -12 -11 -12 -12 -12 -12 -12 -11 -11 -10 -11 -11 -12 -11 -12 -12 -11
-14 -14 -14 -14 -14 -14 -15 -14 -15 -15 -15 -14 -15 -14 -13 -13 -10 -10 -12 -5 -12 -12 -13 -13 -12 -12 -12 -12 -10 -11 -11 -11 -12 -12 -12 -11 -10 -10 -10 -11 -9 -9
-14 -14 -13 -13 -13 -12 -12 -14 -15 -16 -16 -16 -15 -14 -10 -10 -12 -13 -13 -13 -13 -13 -12 -12 -13 -12 -11 -12 -12 -12 -12 -12 -12 -13 -12 -11 -11 -10 -10 -9 -9 -8
-12 -12 -10 -12 -13 -13 -14 -14 -15 -15 -15 -15 -14 -11 -12 -12 -13 -13 -13 -14 -14 -13 -13 -12 -12 -12 -12 -12 -12 -12 -12 -12 -12 -12 -12 -12 -11 -10 -10 -9 -8 -7
-14 -14 -14 -13 -13 -14 -14 -14 -14 -8 -12 -12 -11 -12 -12 -13 -14 -14 -14 -13 -13 -11 -12 -13 -13 -12 -12 -12 -11 -11 -11 -11 -11 -11 -11 -11 -10 -10 -10 -9 -8 -8
-14 -14 -14 -14 -14 -14 -13 -14 -13 -13 -13 -12 -13 -14 -13 -13 -14 -13 -12 -12 -13 -13 -13 -12 -12 -12 -12 -11 -11 -10 -11 -11 -11 -11 -11 -11 -11 -11 -10 -8 -8 -7
-14 -14 -15 -15 -15 -15 -14 -14 -13 -13 -12 -13 -14 -14 -12 -13 -12 -12 -12 -12 -12 -12 -12 -12 -12 -11 -11 -10 -9 -9 -10 -10 -10 -11 -11 -11 -10 -10 -10 -9 -8 -8
-14 -14 -14 -14 -14 -13 -13 -13 -13 -13 -12 -13 -14 -13 -12 -12 -11 -12 -12 -12 -12 -12 -12 -11 -11 -10 -10 -10 -9 -10 -10 -9 -9 -9 -10 -9 -8 -9 -9 -9 -8 -9
-13 -13 -13 -13 -13 -13 -13 -13 -14 -14 -14 -12 -13 -12 -11 -11 -10 -10 -11 -11 -12 -11 -11 -11 -10 -10 -10 -10 -10 -10 -10 -9 -9 -8 -8 -8 -8 -9 -7 -8 -8 -8
-12 -13 -13 -13 -13 -13 -13 -13 -13 -14 -14 -13 -10 -12 -12 -12 -11 -11 -10 -10 -10 -10 -10 -10 -10 -10 -10 -10 -10 -10 -10 -9 -8 -8 -9 -8 -8 -9 -9 -8 -9 -9
-12 -12 -12 -13 -13 -14 -13 -13 -14 -13 -13 -13 -11 -11 -11 -11 -10 -11 -9 -10 -10 -9 -9 -9 -9 -9 -9 -9 -9 -9 -9 -8 -8 -9 -9 -9 -9 -9 -9 -9 -8 -8
-12 -13 -13 -14 -14 -13 -13 -12 -12 -12 -12 -12 -10 -10 -10 -11 -11 -10 -10 -9 -9 -9 -8 -9 -9 -9 -9 -9 -9 -9 -9 -9 -9 -9 -9 -10 -9 -9 -8 -8 -8 -8
-14 -13 -14 -13 -12 -12 -12 -12 -11 -12 -11 -11 -10 -8 -8 -9 -9 -9 -9 -9 -9 -9 -9 -9 -9 -9 -9 -9 -10 -9 -9 -9 -9 -9 -8 -8 -8 -8 -7 -7 -7 -7
-13 -13 -12 -12 -12 -12 -12 -11 -11 -11 -10 -11 -10 -9 -9 -9 -9 -9 -9 -9 -9 -9 -9 -10 -10 -10 -7 -2 5 -1 -2 -2 -2 -2 -2 -2 -3 -3 -4 -4 -4 -5
-13 -13 -13 -13 -12 -12 -11 -11 -11 -10 -10 -10 -9 -10 -10 -10 -9 -8 -10 -9 -10 -10 -10 -10 -10 -10 -3 9 10 7 -3 -2 0 -0 -1 -2 -3 -3 -4 -4 -4 -4
-13 -13 -12 -12 -12 -11 -11 -11 -10 -10 -10 -9 -10 -10 -9 -10 -10 -10 -10 -10 -10 -11 -11 -10 -10 -6 8 10 10 6 8 -0 -1 -1 -2 -2 -3 -4 -5 -5 -5 -6
-12 -12 -12 -12 -11 -10 -10 -9 -10 -9 -10 -10 -10 -10 -12 -12 -9 -8 -9 -10 -10 -10 -11 -10 -11 2 8 10 9 6 7 -0 -3 -2 -2 -3 -4 -5 -6 -7 -7 -7
-12 -12 -11 -11 -10 -10 -10 -10 -10 -10 -10 -10 -11 -10 -10 -10 -10 -10 -9 -10 -11 -11 -11 -11 -11 -7 7 9 11 8 5 -0 -1 -1 -2 -4 -6 -7 -8 -9 -9 -9
-11 -11 -10 -10 -9 -10 -10 -10 -10 -10 -10 -10 -10 -10 -9 -10 -10 -11 -11 -11 -11 -12 -12 -12 -12 2 8 9 10 5 1 4 -2 -2 -4 -7 -8 -9 -9 -9 -9 -9
-10 -10 -9 -9 -9 -10 -10 -10 -10 -11 -11 -10 -10 -10 -10 -10 -10 -11 -11 -11 -11 -12 -12 -12 -12 5 7 9 10 6 8 -2 -2 -4 -6 -8 -8 -9 -9 -8 -8 -8
-9 -9 -9 -9 -9 -10 -10 -11 -10 -11 -11 -12 -12 -10 -9 -10 -10 -10 -10 -10 -11 -12 -12 -12 -12 -2 6 8 9 5 1 -4 -4 -5 -6 -7 -9 -9 -9 -9 -9 -8
-8 -9 -9 -10 -10 -11 -11 -10 -10 -10 -10 -10 -10 -10 -10 -10 -10 -10 -10 -10 -11 -12 -12 -13 -13 -7 5 7 9 3 -1 -5 -5 -6 -7 -7 -8 -9 -8 -8 -8 -4
-9 -9 -10 -10 -11 -10 -11 -11 -10 -10 -9 -11 -11 -12 -11 -10 -10 -11 -11 -11 -12 -12 -10 -11 -12 -10 4 6 7 7 -7 -5 -4 -5 -8 -9 -8 -9 -8 -8 -7 -5
-9 -10 -9 -10 -10 -11 -11 -11 -11 -12 -11 -10 -11 -11 -11 -11 -11 -12 -12 -12 -12 -13 -14 -13 -14 -14 -11 5 6 8 -0 -6 -4 -6 -8 -9 -9 -9 -9 -9 -8 -7